Mountain Home, AR

11:40 PM CDT on April 27, 2017 (GMT -0500)
Baxter County Regional

Weather History for KBPK - January, 2014

Change the Weather History Date:

Thursday, January 23, 2014

  Actual Average (KFLP) Record (KFLP)
Temperature  
Mean Temperature 19 °F -  
Max Temperature 30 °F 45 °F 75 °F (2002)
Min Temperature 7 °F 25 °F 6 °F (2003)
Degree Days  
Heating Degree Days 46    
Moisture  
Dew Point -6 °F    
Average Humidity 38    
Maximum Humidity 58    
Minimum Humidity 26    
Precipitation  
Precipitation 0.00 in - - ()
Sea Level Pressure  
Sea Level Pressure 30.64 in    
Wind  
Wind Speed 7 mph (NNW)    
Max Wind Speed 10 mph    
Max Gust Speed 20 mph    
Visibility 10 miles    
Events      
Averages and records for this station are not official NWS values.
T = Trace of Precipitation, MM = Missing Value Source: NWS Daily Summary

Daily Weather History Graph

Daily Weather History Graph

Search for Another Location

Airport or City:

Trip Planner

Search our weather history database for the weather conditions in past years. The results will help you decide how hot, cold, wet, or windy it might be!

Date:

Astronomy

Jan. 23, 2014 Rise Set
Actual Time 7:17 AM CST 5:26 PM CST
Civil Twilight 6:49 AM CST 5:54 PM CST
Nautical Twilight 6:18 AM CST 6:25 PM CST
Astronomical Twilight 5:47 AM CST 6:56 PM CST
Moon No Moon Rise 11:05 AM CST (1/23)
Length of Visible Light 11h 04m
Length of Day
10h 09m
Waning Gibbous, 55% of the Moon is Illuminated
Jan 23
Waning Gibbous
Jan 23
Last Quarter
Jan 30
New
Feb 6
First Quarter
Feb 14
Full

Hourly Weather History & Observations

Time (CST) Temp. Windchill Dew Point Humidity Pressure Visibility Wind Dir Wind Speed Gust Speed Precip Events Conditions
12:53 AM 30.9 °F 25.2 °F 10.0 °F 42% 30.28 in 10.0 mi Variable 5.8 mph - N/A   Clear
1:53 AM 28.0 °F 19.3 °F 10.0 °F 47% 30.32 in 10.0 mi North 9.2 mph 19.6 mph N/A   Clear
2:53 AM 25.0 °F 16.3 °F 10.0 °F 53% 30.38 in 10.0 mi North 8.1 mph - N/A   Clear
3:53 AM 23.0 °F 14.7 °F 6.1 °F 48% 30.42 in 10.0 mi Variable 6.9 mph - N/A   Mostly Cloudy
4:53 AM 18.0 °F 7.7 °F -9.0 °F 30% 30.47 in 10.0 mi North 8.1 mph 19.6 mph N/A   Mostly Cloudy
5:53 AM 15.1 °F 4.2 °F -11.0 °F 31% 30.53 in 10.0 mi NNW 8.1 mph - N/A   Partly Cloudy
6:53 AM 14.0 °F 1.2 °F -7.1 °F 39% 30.58 in 10.0 mi North 10.4 mph 17.3 mph N/A   Partly Cloudy
7:53 AM 14.0 °F 6.5 °F -4.0 °F 45% 30.61 in 10.0 mi North 4.6 mph - N/A   Mostly Cloudy
8:53 AM 12.9 °F 0.7 °F -11.0 °F 34% 30.66 in 10.0 mi North 9.2 mph 19.6 mph N/A   Overcast
9:53 AM 14.0 °F 3.9 °F -9.9 °F 34% 30.70 in 10.0 mi North 6.9 mph - N/A   Scattered Clouds
10:53 AM 15.1 °F 4.2 °F -11.0 °F 31% 30.73 in 10.0 mi North 8.1 mph - N/A   Partly Cloudy
11:53 AM 17.1 °F 5.8 °F -9.9 °F 30% 30.72 in 10.0 mi NNW 9.2 mph - N/A   Scattered Clouds
12:53 PM 18.0 °F 6.9 °F -11.0 °F 27% 30.71 in 10.0 mi NNW 9.2 mph 16.1 mph N/A   Clear
1:53 PM 19.0 °F 9.0 °F -11.0 °F 26% 30.70 in 10.0 mi NNW 8.1 mph - N/A   Partly Cloudy
2:53 PM 19.9 °F 12.1 °F -9.9 °F 26% 30.70 in 10.0 mi North 5.8 mph - N/A   Partly Cloudy
3:53 PM 19.0 °F 9.0 °F -9.9 °F 27% 30.71 in 10.0 mi NW 8.1 mph - N/A   Clear
4:53 PM 17.1 °F 10.0 °F -9.0 °F 31% 30.72 in 10.0 mi Variable 4.6 mph - N/A   Clear
5:53 PM 16.0 °F 10.4 °F -9.0 °F 32% 30.74 in 10.0 mi NNW 3.5 mph - N/A   Clear
6:53 PM 14.0 °F 8.2 °F -8.0 °F 37% 30.76 in 10.0 mi NNW 3.5 mph - N/A   Clear
7:53 PM 12.9 °F 6.9 °F -8.0 °F 39% 30.77 in 10.0 mi NNW 3.5 mph - N/A   Clear
8:53 PM 10.9 °F - -8.0 °F 42% 30.78 in 10.0 mi Calm Calm - N/A   Clear
9:53 PM 8.1 °F 1.4 °F -8.0 °F 48% 30.79 in 10.0 mi NW 3.5 mph - N/A   Clear
10:53 PM 8.1 °F 1.4 °F -7.1 °F 50% 30.79 in 10.0 mi North 3.5 mph - N/A   Clear
11:53 PM 7.0 °F - -5.1 °F 58% 30.78 in 10.0 mi Calm Calm - N/A   Clear